Flag for France Weather past 2 weeks in Reims, France

Now
34 °F

Clear.


Feels Like: 30 °F
Forecast: 36 / 61 °F
Wind: 5 mph from South

Location: Chalons-Vatry

Current Time: Mar 7, 2015 at 3:48:44 AM

Latest Report: Mar 7, 2015 at 3:00 AM


Visibility: N/A

Pressure: 30.51 "Hg

Humidity: 87%

Dew point: 30 °F

Location of ReimsLocation

Historic Weather in Reims — Graph

°F

Reims temperature yesterday

Maximum temperature yesterday: 50 °F (at 1:30 PM)
Minimum temperature yesterday: 30 °F (at 5:30 AM)
Average temperature yesterday: 40 °F

Past Weeks' High & Low Weather Summary

 TemperatureHumidityPressure
High54 °F (Mar 1, 2:00 PM)100% (Feb 21, 8:30 AM)30.69 "Hg (Feb 21, 8:30 AM)
Low27 °F (Feb 28, 6:00 AM)50% (Mar 6, 3:30 PM)29.45 "Hg (Feb 23, 8:00 AM)
Average41 °F84%30.03 "Hg
* Reported Feb 20 2:00 AM — Mar 7 2:30 AM, Reims, Weather by CustomWeather, © 2015

Note: Actual official high and low records may vary slightly from our data, if they occured in-between our weather recording intervals... More about our weather records

Advertising

Reims weather history for previous 24 hours

 ConditionsComfort  
Time TempWeatherWind HumidityBarometerVisibility
2:30 AM
Sat, Mar 7
36 °FClear.5 mph81%30.51 "HgN/A
2:00 AM36 °FClear.3 mph81%30.54 "HgN/A
1:30 AM36 °FClear.2 mph87%30.54 "HgN/A
1:00 AM36 °FClear.No wind81%30.54 "HgN/A
12:30 AM37 °FClear.3 mph81%30.54 "HgN/A
12:00 AM39 °FClear.5 mph75%30.54 "HgN/A
11:30 PM
Fri, Mar 6
41 °FClear.5 mph70%30.57 "HgN/A
11:00 PM39 °FClear.3 mph75%30.54 "HgN/A
10:30 PM37 °FClear.3 mph81%30.54 "HgN/A
10:00 PM39 °FClear.5 mph75%30.54 "HgN/A
9:30 PM39 °FClear.5 mph75%30.54 "HgN/A
9:00 PM39 °FClear.7 mph75%30.54 "HgN/A
8:30 PM39 °FClear.3 mph81%30.57 "HgN/A
8:00 PM39 °FClear.6 mph75%30.54 "HgN/A
7:30 PM43 °FClear.3 mph76%30.57 "HgN/A
7:00 PM45 °FClear.No wind71%30.57 "HgN/A
6:30 PM46 °FClear.2 mph66%30.57 "HgN/A
6:00 PM48 °FClear.3 mph62%30.57 "HgN/A
5:30 PM48 °FClear.5 mph58%30.57 "HgN/A
5:00 PM48 °FClear.3 mph58%30.57 "HgN/A
4:30 PM50 °FClear.3 mph54%30.57 "HgN/A
4:00 PM50 °FClear.5 mph54%30.57 "HgN/A
3:30 PM50 °FClear.5 mph50%30.57 "HgN/A
3:00 PM50 °FPassing clouds.2 mph58%30.60 "HgN/A
2:30 PM50 °FClear.5 mph54%30.60 "HgN/A
2:00 PM48 °FPassing clouds.3 mph58%30.60 "HgN/A
1:30 PM50 °FClear.3 mph58%30.63 "HgN/A
1:00 PM48 °FPassing clouds.3 mph62%30.66 "HgN/A
12:30 PM48 °FClear.3 mph66%30.66 "HgN/A
12:00 PM46 °FClear.3 mph71%30.66 "HgN/A
11:30 AM45 °FClear.5 mph71%30.66 "HgN/A
11:00 AM43 °FClear.3 mph71%30.66 "HgN/A
10:30 AM43 °FPassing clouds.3 mph76%30.66 "HgN/A
10:00 AM41 °FClear.1 mph81%30.69 "HgN/A
9:30 AM39 °FClear.2 mph81%30.66 "Hg6 mi
9:00 AM37 °FClear.1 mph87%30.66 "Hg4 mi
8:30 AM34 °FClear.2 mph93%30.66 "Hg4 mi
8:00 AM32 °FClear.5 mph100%30.66 "Hg4 mi
7:30 AM32 °FClear.6 mph100%30.66 "Hg5 mi
7:00 AM32 °FClear.5 mph93%30.66 "Hg6 mi
6:30 AM32 °FClear.2 mph93%30.66 "HgN/A
6:00 AM32 °FClear.3 mph100%30.66 "Hg6 mi
5:30 AM30 °FClear.2 mph86%30.66 "Hg6 mi
5:00 AM34 °FClear.3 mph87%30.66 "HgN/A
4:30 AM34 °FClear.3 mph87%30.63 "HgN/A
4:00 AM34 °FClear.3 mph87%30.63 "HgN/A
3:30 AM34 °FClear.2 mph87%30.63 "HgN/A
3:00 AM34 °FClear.2 mph87%30.63 "HgN/A
Weather by CustomWeather, © 2015

See weather overviewHow to use our weather pages